COSMOS 2251 DEB, 33936

Orbit data source: Space-Track

COSMOS 2251 DEB, 33936 is space debris in LEO originally from a launch on Wed, 16 Jun 1993 UTC launched from the Plesetsk Missile And Space Complex (PKMTR). The debris from Iridium 33, an American commercial communications satellite, has been tracked extensively since its accidental collision with the defunct Russian satellite Cosmos 2251 in 2009. This event, occurring at high speed in low Earth orbit (LEO), generated thousands of pieces of space debris, significantly increasing the risk of further collisions. The Iridium 33 debris cloud has impacted space traffic management and orbital debris mitigation strategies, making it a subject of ongoing study in space situational awareness.

Loading next visibility...
Identifier
33936, 1993-036ER
Orbit
LEO
Country
Flag of CISCIS
Related business
Manufacturer
Unknown
Mission
Spacecraft
Bus & Motor
Unknown
Mass
Unknown
Launch date (UTC)
1993-06-16 (33 years ago)
Launch vehicle
Unknown
Launch site
Plesetsk Missile And Space Complex (PKMTR)
Object type
Payload
Rocket body
Debris
Shape & HBR
Unknown shape, 0.2 m
Radar Cross Section
Small (<0.1 m²)

Expand to show TLE details & history
Last TLE update: 18 hours ago

TLE from 18 hours ago
0 COSMOS 2251 DEB
1 33936U 93036ER  26033.41760766  .00003022  00000-0  62314-3 0  9992
2 33936  74.0189 298.6865 0026218  77.6081 282.8017 14.60699523896441
Epoch: 2026-02-02T10:01Z
TLE epoch observation values (Epoch: 2026-02-02T10:01:21.301Z)
Latitude
-0.00004°
Longitude
15.73455°
Altitude
689.495 km
Speed
7.514 km/s
True Right ascension
19h 54m 44s
True Declination
0° 00' 00"
Sunlit
Object was in daylight at epoch
Visualization orbit readout
Latitude
Unknown
Longitude
Unknown
Altitude
Unknown
Speed
Unknown
Apparent Right ascension
Unknown
Apparent Declination
Unknown
Sunlit
N/A
Visualization observer readout
Local Sidereal Time
05:46:10
Azimuth
Unknown
Elevation
Unknown
Doppler factor
Unknown
Orbital elements
Apogee altitude
707.042 km
Perigee altitude
669.987 km
Semi-major axis
7,066.651 km
Eccentricity
0.00262
Inclination
74.0189°
RAAN
298.6865°
Arg. of periapsis
77.6081°
True anomaly
282.50852°
Mean anomaly
282.8017°
Eccentric anomaly
282.65513°
Mean motion
3.65361 °/min
Orbital period
98.53 mins
BSTAR
0.00062314
Loading maneuver chart data...
Computing Atmospheric mass density...

Documentation

Showing up to 5 results
|